Location: Ferchesar
(52.6477°N, 12.4298°E)
Time: 00:56:46
(UTC+01:00)

Transit 2A Rocket - Pass Details

Date: 14 December 2021
Orbit: 584 x 918 km, 66.7° (Epoch: 21 January)

Event Time Altitude Azimuth Distance (km) Brightness Sun altitude
Rises 03:43:30 0° 151° (SSE) 3,384 8.5 -39.5°
Reaches altitude 10° 03:47:31 10° 123° (ESE) 2,521 8.1 -38.9°
Maximum altitude 03:49:47 12° 100° (E) 2,385 8.1 -38.6°
Drops below altitude 10° 03:52:05 10° 77° (ENE) 2,581 8.4 -38.2°
Sets 03:56:18 0° 50° (NE) 3,558 9.2 -37.6°
